カタログに戻る

THOR ABLESTAR DEB

運用中LEO
NORAD 21986·DEBRIS·🇺🇸 United States

打ち上げ Jun 29, 1961 から Cape Canaveral Space Force Station

Loading…

次のパス (今後24時間)

TLE

最新Source: Space-Track

元期: Sep 14, 2026, 13:27 UTC

1 21986U 61015MM  26257.56054561  .00000200  00000-0  16145-3 0  9995
2 21986  66.8764 302.7883 0098943 323.5816 186.0935 14.06416101765461

AllMySatでTHOR ABLESTAR DEBをリアルタイム追跡

Download on the App Store